Simultaneous Nadir Overpasses (SNOs) Predictions

Prediction of SNOs between AQUA and METOP-C Satellite Orbit:

Table of predicted SNOs for the next 14.0 days since TLE Epoch: 5/31/2025
Index Date (AQUA) Time (AQUA) Lat,Lon (AQUA) SZA (AQUA ) Date (METOP-C) Time (METOP-C) Lat,Lon (METOP-C) SZA (METOP-C ) Distance(km) Time Diff (sec)
1 05/31/2025 03:51:40 76.64, 124.40 54.64 05/31/2025 03:52:40 76.65, 124.51 54.65 3.08 60
2 06/02/2025 15:01:20 76.58, -42.76 54.26 06/02/2025 15:00:18 76.55, -42.76 54.22 4.13 62
3 06/02/2025 15:50:38 -76.61, 124.82 125.72 06/02/2025 15:50:58 -76.60, 124.76 125.74 2.10 20
4 06/05/2025 03:49:36 76.60, 125.18 53.98 06/05/2025 03:49:13 76.60, 125.22 53.98 1.00 23
5 06/05/2025 04:38:54 -76.63, -67.23 126.01 06/05/2025 04:39:53 -76.66, -67.25 125.97 3.43 59
6 06/07/2025 15:48:33 -76.59, 125.56 126.29 06/07/2025 15:47:30 -76.59, 125.61 126.29 1.52 63
7 06/07/2025 16:37:52 76.61, -66.85 53.73 06/07/2025 16:38:10 76.61, -67.00 53.73 3.99 18
8 06/10/2025 04:36:49 -76.62, -66.57 126.47 06/10/2025 04:36:27 -76.59, -66.61 126.50 3.54 22
9 06/10/2025 05:26:08 76.65, 101.01 53.56 06/10/2025 05:27:06 76.65, 100.93 53.56 1.95 58
10 06/12/2025 16:35:45 76.59, -66.12 53.34 06/12/2025 16:34:42 76.62, -66.09 53.36 2.74 63
11 06/12/2025 17:25:04 -76.65, 101.35 126.61 06/12/2025 17:25:23 -76.63, 101.31 126.62 2.02 19



Historial Predications of SNOs between AQUA and METOP-C
